Weather History for KO69 - May, 2013

Change the Weather History Date:

Thursday, May 23, 2013

  Actual Average (KAPC) Record (KAPC)
Temperature  
Mean Temperature 54 °F 60 °F  
Max Temperature 68 °F 74 °F 91 °F (2000)
Min Temperature 41 °F 47 °F 31 °F (2010)
Degree Days  
Heating Degree Days 10    
Month to date heating degree days  
Since 1 July heating degree days  
Cooling Degree Days 0    
Month to date cooling degree days  
Year to date cooling degree days  
Growing Degree Days 4 (Base 50)    
Moisture  
Dew Point 40 °F    
Average Humidity 63    
Maximum Humidity 93    
Minimum Humidity 32    
Precipitation  
Precipitation 0.00 in - 1.30 in (1960)
Month to date precipitation  
Year to date precipitation  
Sea Level Pressure  
Sea Level Pressure 29.98 in    
Wind  
Wind Speed 7 mph (WNW)    
Max Wind Speed 16 mph    
Max Gust Speed 21 mph    
Visibility 9 miles    
Events      
T = Trace of Precipitation, MM = Missing Value Source: NWS Daily Summary

Daily Weather History Graph

Daily Weather History Graph

Search for Another Location

Airport or City:

Trip Planner

Search our weather history database for the weather conditions in past years. The results will help you decide how hot, cold, wet, or windy it might be!

Date:

Astronomy

May. 23, 2013 Rise Set
Actual Time 5:53 AM PDT 8:21 PM PDT
Civil Twilight 5:22 AM PDT 8:52 PM PDT
Nautical Twilight 4:45 AM PDT 9:29 PM PDT
Astronomical Twilight 4:03 AM PDT 10:11 PM PDT
Moon 7:01 PM PDT (5/23) 4:40 AM PDT (5/23)
Length of Visible Light 15h 29m
Length of Day
14h 28m
Waxing Gibbous, 97% of the Moon is Illuminated
May 23
Waxing Gibbous
May 24
Full
May 31
Last Quarter
Jun 8
New
Jun 16
First Quarter

Hourly Weather History & Observations

Time (PDT) Temp. Windchill Dew Point Humidity Pressure Visibility Wind Dir Wind Speed Gust Speed Precip Events Conditions
12:15 AM 44.6 °F 41.4 °F 41.0 °F 87% 29.94 in 9.0 mi WNW 5.8 mph - N/A   Scattered Clouds
12:35 AM 44.6 °F 41.4 °F 39.2 °F 81% 29.94 in 8.0 mi WNW 5.8 mph - N/A   Mostly Cloudy
12:55 AM 44.6 °F 43.1 °F 39.2 °F 81% 29.95 in 9.0 mi NW 3.5 mph - N/A   Mostly Cloudy
1:15 AM 44.6 °F 43.1 °F 39.2 °F 81% 29.95 in 9.0 mi NW 3.5 mph - N/A   Overcast
1:35 AM 42.8 °F 39.3 °F 39.2 °F 87% 29.94 in 8.0 mi WNW 5.8 mph - N/A   Overcast
1:55 AM 44.6 °F 42.2 °F 39.2 °F 81% 29.94 in 8.0 mi NW 4.6 mph - N/A   Overcast
2:15 AM 42.8 °F 41.1 °F 39.2 °F 87% 29.94 in 8.0 mi NW 3.5 mph - N/A   Mostly Cloudy
2:35 AM 42.8 °F 40.1 °F 39.2 °F 87% 29.93 in 8.0 mi NW 4.6 mph - N/A   Scattered Clouds
2:55 AM 42.8 °F 40.1 °F 39.2 °F 87% 29.93 in 8.0 mi NW 4.6 mph - N/A   Mostly Cloudy
3:15 AM 42.8 °F 41.1 °F 39.2 °F 87% 29.93 in 8.0 mi NW 3.5 mph - N/A   Overcast
3:35 AM 42.8 °F 41.1 °F 39.2 °F 87% 29.93 in 7.0 mi NW 3.5 mph - N/A   Overcast
3:55 AM 41.0 °F 36.4 °F 39.2 °F 93% 29.94 in 8.0 mi WNW 6.9 mph - N/A   Overcast
4:15 AM 42.8 °F 38.6 °F 39.2 °F 87% 29.94 in 9.0 mi WNW 6.9 mph - N/A   Overcast
4:35 AM 42.8 °F 40.1 °F 39.2 °F 87% 29.94 in 8.0 mi NW 4.6 mph - N/A   Overcast
4:55 AM 42.8 °F 41.1 °F 39.2 °F 87% 29.94 in 8.0 mi WNW 3.5 mph - N/A   Mostly Cloudy
5:15 AM 41.0 °F 36.4 °F 37.4 °F 87% 29.94 in 9.0 mi WNW 6.9 mph - N/A   Scattered Clouds
5:35 AM 41.0 °F 37.1 °F 37.4 °F 87% 29.94 in 9.0 mi WNW 5.8 mph - N/A   Scattered Clouds
5:55 AM 41.0 °F 39.0 °F 37.4 °F 87% 29.95 in 7.0 mi WNW 3.5 mph - N/A   Partly Cloudy
6:15 AM 41.0 °F 35.8 °F 37.4 °F 87% 29.96 in 7.0 mi WNW 8.1 mph - N/A   Clear
6:35 AM 41.0 °F 39.0 °F 37.4 °F 87% 29.96 in 7.0 mi NW 3.5 mph - N/A   Clear
6:55 AM 42.8 °F 39.3 °F 39.2 °F 87% 29.96 in 8.0 mi WNW 5.8 mph - N/A   Clear
7:15 AM 44.6 °F 40.7 °F 39.2 °F 81% 29.96 in 8.0 mi West 6.9 mph - N/A   Clear
7:35 AM 46.4 °F 43.5 °F 39.2 °F 76% 29.97 in 8.0 mi WNW 5.8 mph - N/A   Clear
7:55 AM 48.2 °F - 39.2 °F 71% 29.97 in 9.0 mi WNW 5.8 mph - N/A   Clear
8:15 AM 50.0 °F - 39.2 °F 66% 29.97 in 9.0 mi WNW 8.1 mph - N/A   Clear
8:35 AM 51.8 °F - 39.2 °F 62% 29.97 in 10.0 mi WNW 6.9 mph - N/A   Clear
8:55 AM 53.6 °F - 39.2 °F 58% 29.98 in 10.0 mi NW 8.1 mph - N/A   Clear
9:15 AM 53.6 °F - 39.2 °F 58% 29.99 in 10.0 mi NW 6.9 mph - N/A   Clear
9:35 AM 55.4 °F - 41.0 °F 58% 29.99 in 10.0 mi NW 6.9 mph - N/A   Clear
9:55 AM 57.2 °F - 39.2 °F 51% 29.99 in 10.0 mi NW 5.8 mph - N/A   Clear
10:15 AM 57.2 °F - 39.2 °F 51% 29.99 in 10.0 mi NNW 6.9 mph - N/A   Clear
10:35 AM 59.0 °F - 39.2 °F 48% 29.99 in 10.0 mi WNW 6.9 mph - N/A   Clear
10:55 AM 60.8 °F - 39.2 °F 45% 29.99 in 10.0 mi West 8.1 mph - N/A   Clear
11:15 AM 60.8 °F - 39.2 °F 45% 29.99 in 10.0 mi NW 5.8 mph - N/A   Clear
11:35 AM 62.6 °F - 39.2 °F 42% 30.00 in 10.0 mi West 5.8 mph - N/A   Clear
11:55 AM 66.2 °F - 41.0 °F 40% 30.00 in 10.0 mi West 9.2 mph - N/A   Clear
12:15 PM 64.4 °F - 41.0 °F 42% 30.00 in 10.0 mi WSW 5.8 mph 16.1 mph N/A   Clear
12:35 PM 64.4 °F - 41.0 °F 42% 29.99 in 10.0 mi West 9.2 mph 16.1 mph N/A   Clear
12:55 PM 66.2 °F - 41.0 °F 40% 30.00 in 10.0 mi WSW 9.2 mph - N/A   Clear
1:15 PM 66.2 °F - 42.8 °F 43% 30.00 in 10.0 mi WNW 8.1 mph - N/A   Clear
1:35 PM 66.2 °F - 41.0 °F 40% 30.00 in 10.0 mi WSW 11.5 mph 17.3 mph N/A   Clear
1:55 PM 68.0 °F - 41.0 °F 37% 30.00 in 10.0 mi West 13.8 mph - N/A   Clear
2:15 PM 66.2 °F - 41.0 °F 40% 30.01 in 10.0 mi West 11.5 mph 18.4 mph N/A   Clear
2:35 PM 66.2 °F - 41.0 °F 40% 30.01 in 10.0 mi West 12.7 mph 19.6 mph N/A   Clear
2:55 PM 66.2 °F - 41.0 °F 40% 30.01 in 10.0 mi West 13.8 mph - N/A   Clear
3:15 PM 66.2 °F - 41.0 °F 40% 30.01 in 10.0 mi West 16.1 mph 20.7 mph N/A   Clear
3:35 PM 66.2 °F - 41.0 °F 40% 30.01 in 10.0 mi West 13.8 mph 19.6 mph N/A   Clear
3:55 PM 66.2 °F - 41.0 °F 40% 30.00 in 10.0 mi West 15.0 mph 18.4 mph N/A   Clear
4:15 PM 66.2 °F - 39.2 °F 37% 30.00 in 10.0 mi West 11.5 mph - N/A   Clear
4:35 PM 66.2 °F - 39.2 °F 37% 30.00 in 10.0 mi WSW 12.7 mph - N/A   Clear
4:55 PM 66.2 °F - 39.2 °F 37% 29.99 in 10.0 mi West 10.4 mph 17.3 mph N/A   Clear
5:15 PM 66.2 °F - 37.4 °F 35% 29.99 in 10.0 mi West 11.5 mph - N/A   Clear
5:35 PM 66.2 °F - 39.2 °F 37% 29.99 in 10.0 mi West 9.2 mph 16.1 mph N/A   Clear
5:55 PM 66.2 °F - 35.6 °F 32% 29.99 in 10.0 mi West 10.4 mph - N/A   Clear
6:15 PM 66.2 °F - 35.6 °F 32% 29.99 in 10.0 mi WSW 13.8 mph 18.4 mph N/A   Clear
6:35 PM 64.4 °F - 41.0 °F 42% 29.99 in 10.0 mi West 10.4 mph 16.1 mph N/A   Clear
6:55 PM 62.6 °F - 42.8 °F 48% 29.99 in 10.0 mi WNW 4.6 mph - N/A   Clear
7:15 PM 60.8 °F - 41.0 °F 48% 30.00 in 10.0 mi WNW 10.4 mph - N/A   Clear
7:35 PM 59.0 °F - 41.0 °F 51% 30.00 in 10.0 mi WSW 8.1 mph - N/A   Clear
7:55 PM 57.2 °F - 41.0 °F 55% 30.00 in 9.0 mi West 9.2 mph - N/A   Clear
8:15 PM 55.4 °F - 41.0 °F 58% 30.00 in 10.0 mi West 10.4 mph - N/A   Clear
8:35 PM 53.6 °F - 41.0 °F 62% 30.00 in 9.0 mi West 5.8 mph - N/A   Clear
8:55 PM 51.8 °F - 41.0 °F 67% 30.00 in 10.0 mi West 8.1 mph - N/A   Partly Cloudy
9:15 PM 51.8 °F - 42.8 °F 71% 30.01 in 9.0 mi Calm Calm - N/A   Scattered Clouds
9:35 PM 48.2 °F - 42.8 °F 82% 30.01 in 9.0 mi Calm Calm - N/A   Mostly Cloudy
9:55 PM 48.2 °F - 42.8 °F 82% 30.02 in 9.0 mi NW 3.5 mph - N/A   Mostly Cloudy
10:15 PM 48.2 °F - 42.8 °F 82% 30.02 in 9.0 mi NW 3.5 mph - N/A   Mostly Cloudy
10:35 PM 50.0 °F - 42.8 °F 76% 30.02 in 9.0 mi WNW 6.9 mph - N/A   Mostly Cloudy
10:55 PM 48.2 °F - 42.8 °F 82% 30.03 in 9.0 mi WNW 5.8 mph - N/A   Mostly Cloudy
11:15 PM 48.2 °F - 42.8 °F 82% 30.02 in 8.0 mi NW 3.5 mph - N/A   Mostly Cloudy
11:35 PM 48.2 °F - 44.6 °F 87% 30.02 in 3.0 mi NW 4.6 mph - N/A   Mostly Cloudy
11:55 PM 46.4 °F 42.9 °F 42.8 °F 87% 30.01 in 7.0 mi WNW 6.9 mph - N/A   Partly Cloudy